To NAV CANADA Home Page Login to a new session Search on AWWS site Feedback and Comments Disclaimer Vers la page française équivalente Tips FAQ What's new on the site To the Forecasts and Observations / NOTAM section To "File a Flight Plan" website Publications and other links Update of the User's profile FIC Telephone Numbers My Weather Data Folder Route Weather Data Regional Weather Data Local Weather Data To the Forecasts and Observations / NOTAM section
Request Generated 03/03/2015 at 08:50:29 UTC . Weather information available at that time is displayed.

METAR/TAF

DEASE LAKE/BC    (show WxCam)

METAR CYDL 030800Z AUTO 13010KT 9SM CLR M16/M22 A3028 RMK SLP307=
METAR CYDL 030700Z AUTO 14011KT 9SM CLR M15/M21 A3028 RMK SLP310=
METAR CYDL 030600Z AUTO 15010KT 9SM CLR M12/M20 A3028 RMK SLP307=

*** REMARK        : Forecast period has ended; this was the last TAF issued
*** REMARQUE : La période de prévision est échue; ceci était le dernier TAF qui a été émis
TAF CYDL 022338Z 0300/0303 16012KT P6SM SKC
RMK FCST BASED ON AUTO OBS. NXT FCST WILL BE ISSUED AT 031645Z=
Your time UTC time
Weather data provided by Environment Canada and NAV CANADA